Weather History for Atlanta Fulton, GA

Change the Weather History Date:

Friday, February 14, 2014

  Actual Average Record
Temperature  
Mean Temperature 42 °F 46 °F  
Max Temperature 57 °F 57 °F 66 °F (2000)
Min Temperature 27 °F 35 °F 23 °F (2006)
Degree Days  
Heating Degree Days 23 19  
Month to date heating degree days 317 281  
Since 1 July heating degree days 2351 2097  
Moisture  
Dew Point 31 °F    
Average Humidity 64    
Maximum Humidity 92    
Minimum Humidity 35    
Precipitation  
Precipitation 0.13 in 0.17 in 1.11 in (1964)
Month to date precipitation 2.27 2.29  
Year to date precipitation 4.87 6.56  
Snow  
Snow 0.00 in - - ()
Month to date snowfall 0.0  
Since 1 July snowfall T  
Snow Depth 0.00 in    
Sea Level Pressure  
Sea Level Pressure 29.84 in    
Wind  
Wind Speed 4 mph (SW)    
Max Wind Speed 15 mph    
Max Gust Speed 22 mph    
Visibility 10 miles    
Events Rain    
T = Trace of Precipitation, MM = Missing Value Source: NWS Daily Summary

Daily Weather History Graph

Daily Weather History Graph

Search for Another Location

Airport:

Trip Planner

Search our weather history database for the weather conditions in past years. The results will help you decide how hot, cold, wet, or windy it might be!

Date:

Astronomy

Feb. 14, 2014 Rise Set
Actual Time 7:23 AM EST 6:21 PM EST
Civil Twilight 6:57 AM EST 6:47 PM EST
Nautical Twilight 6:28 AM EST 7:16 PM EST
Astronomical Twilight 5:59 AM EST 7:45 PM EST
Moon 6:21 PM EST 6:51 AM EST
Length of Visible Light 11h 49m
Length of Day
10h 58m
Full, 100% of the Moon is Illuminated
Feb 14
Full
Feb 14
Full
Feb 22
Last Quarter
Mar 1
New
Mar 8
First Quarter

Hourly Weather History & Observations

Time (EST) Temp. Windchill Dew Point Humidity Pressure Visibility Wind Dir Wind Speed Gust Speed Precip Events Conditions
12:53 AM 30.9 °F 27.5 °F 27.0 °F 85% 29.91 in 10.0 mi WSW 3.5 mph - N/A   Clear
1:53 AM 30.0 °F - 26.1 °F 85% 29.92 in 10.0 mi Calm Calm - N/A   Clear
2:53 AM 28.9 °F - 27.0 °F 92% 29.91 in 10.0 mi Calm Calm - N/A   Clear
3:53 AM 28.9 °F - 26.1 °F 89% 29.91 in 10.0 mi Calm Calm - N/A   Clear
4:53 AM 28.0 °F - 26.1 °F 92% 29.91 in 10.0 mi Calm Calm - N/A   Clear
5:53 AM 28.0 °F - 26.1 °F 92% 29.92 in 10.0 mi Calm Calm - N/A   Clear
6:53 AM 28.0 °F 24.2 °F 26.1 °F 92% 29.94 in 10.0 mi SW 3.5 mph - N/A   Clear
7:53 AM 28.9 °F 25.2 °F 27.0 °F 92% 29.94 in 10.0 mi WSW 3.5 mph - N/A   Clear
8:53 AM 33.1 °F 28.7 °F 28.9 °F 85% 29.94 in 10.0 mi SW 4.6 mph - N/A   Clear
9:53 AM 37.9 °F 32.7 °F 30.0 °F 73% 29.93 in 10.0 mi SW 6.9 mph - N/A   Clear
10:53 AM 43.0 °F 41.3 °F 33.1 °F 68% 29.93 in 10.0 mi Variable 3.5 mph - N/A   Clear
11:53 AM 48.9 °F - 35.1 °F 59% 29.92 in 10.0 mi South 5.8 mph - N/A   Clear
12:53 PM 53.1 °F - 35.1 °F 50% 29.90 in 10.0 mi South 6.9 mph - N/A   Clear
1:53 PM 55.0 °F - 32.0 °F 42% 29.85 in 10.0 mi SSW 10.4 mph - N/A   Clear
2:53 PM 55.9 °F - 32.0 °F 40% 29.82 in 10.0 mi South 6.9 mph - N/A   Clear
3:53 PM 55.9 °F - 30.0 °F 37% 29.81 in 10.0 mi SSW 8.1 mph - N/A   Clear
4:53 PM 55.9 °F - 28.0 °F 34% 29.78 in 10.0 mi SSW 6.9 mph - N/A   Clear
5:53 PM 54.0 °F - 30.0 °F 40% 29.76 in 10.0 mi SSW 5.8 mph - N/A   Clear
6:53 PM 53.1 °F - 28.9 °F 40% 29.74 in 10.0 mi South 4.6 mph - N/A   Clear
7:53 PM 52.0 °F - 30.0 °F 43% 29.75 in 10.0 mi SSW 5.8 mph - N/A   Scattered Clouds
8:53 PM 52.0 °F - 30.9 °F 45% 29.75 in 10.0 mi Calm Calm - N/A   Overcast
9:53 PM 50.0 °F - 34.0 °F 54% 29.69 in 10.0 mi Calm Calm - 0.00 in   Overcast
10:53 PM 45.0 °F 42.6 °F 41.0 °F 86% 29.73 in 9.0 mi WSW 4.6 mph - 0.07 in Rain Light Rain
11:31 PM 44.6 °F 40.7 °F 41.0 °F 87% 29.72 in 9.0 mi WNW 6.9 mph - 0.04 in Rain Light Rain
11:53 PM 44.1 °F 39.5 °F 41.0 °F 89% 29.72 in 10.0 mi West 8.1 mph - 0.06 in Rain Light Rain